Home   Weather   Halifax   Past weeks

Flag for Canada Past Weather in Halifax, Nova Scotia, Canada — Yesterday and Last 2 Weeks

Now
41 °F

Passing clouds.


Feels Like: 38 °F
Forecast: 45 / 64 °F
Wind: 5 mph from Northwest

Location: Halifax International Airport

Current Time: Sep 30, 2016 at 3:46:49 AM

Latest Report: Sep 30, 2016 at 3:00 AM


Visibility: 15 mi

Pressure: 30.50 "Hg

Humidity: 100%

Dew Point: 41 °F

Location of HalifaxLocation

Past Weather in Halifax — Graph

°F

Halifax Temperature Yesterday

Maximum temperature yesterday: 59 °F (at 12:00 PM)
Minimum temperature yesterday: 43 °F (at 11:00 PM)
Average temperature yesterday: 53 °F

High & Low Weather Summary for the Past Weeks

 TemperatureHumidityPressure
High75 °F (Sep 21, 1:00 PM)100% (Sep 15, 2:00 AM)30.51 "Hg (Sep 15, 2:00 AM)
Low41 °F (Sep 25, 7:00 AM)36% (Sep 21, 5:00 PM)29.83 "Hg (Sep 25, 6:00 AM)
Average57 °F82%30.10 "Hg
* Reported Sep 15 2:00 AM — Sep 30 2:00 AM, Halifax, Weather by CustomWeather, © 2016

Note: Actual official high and low records may vary slightly from our data, if they occured in-between our weather recording intervals... More about our weather records

Advertising

Halifax Weather History for the Previous 24 Hours

Scroll right to see more
 ConditionsComfort  
Time TempWeatherWind HumidityBarometerVisibility
2:00 AM
Fri, Sep 30
43 °FPassing clouds.8 mph93%30.50 "Hg15 mi
1:00 AM43 °FPassing clouds.7 mph93%30.50 "Hg15 mi
12:00 AM43 °FPassing clouds.10 mph100%30.50 "Hg15 mi
11:00 PM
Thu, Sep 29
43 °FPassing clouds.10 mph100%30.51 "Hg15 mi
10:00 PM45 °FPassing clouds.9 mph93%30.50 "Hg15 mi
9:00 PM46 °FPassing clouds.10 mph87%30.49 "Hg15 mi
8:00 PM48 °FPassing clouds.10 mph82%30.48 "Hg15 mi
7:00 PM52 °FPassing clouds.12 mph77%30.46 "Hg15 mi
6:00 PM54 °FBroken clouds.15 mph72%30.44 "Hg15 mi
5:00 PM55 °FPartly sunny.17 mph72%30.43 "Hg15 mi
4:00 PM55 °FBroken clouds.14 mph77%30.42 "Hg15 mi
3:00 PM57 °FPartly sunny.17 mph72%30.40 "Hg15 mi
2:00 PM59 °FPartly sunny.22 mph63%30.40 "Hg15 mi
1:00 PM59 °FPartly sunny.25 mph63%30.39 "Hg15 mi
12:00 PM59 °FPartly sunny.17 mph63%30.39 "Hg15 mi
11:00 AM55 °FPartly sunny.22 mph77%30.38 "Hg15 mi
10:00 AM55 °FScattered clouds.20 mph77%30.38 "Hg15 mi
9:00 AM54 °FBroken clouds.15 mph88%30.38 "Hg15 mi
8:00 AM52 °FBroken clouds.14 mph94%30.37 "Hg15 mi
7:00 AM52 °FPartly cloudy.12 mph94%30.37 "Hg15 mi
6:00 AM52 °FLow clouds.13 mph94%30.34 "Hg15 mi
5:45 AM52 °FLow clouds.16 mph94%30.34 "Hg15 mi
5:00 AM52 °FLow clouds.13 mph94%30.34 "Hg15 mi
4:00 AM52 °FLow clouds.12 mph94%30.34 "Hg15 mi
3:00 AM52 °FLow clouds.8 mph94%30.36 "Hg15 mi
Weather by CustomWeather, © 2016

See weather overviewHow to use our weather pages